Daily Data: Gold Canyon

   
7/23/17
Time         Wind Dir   Wind Spd  Wind Gust   Humidity       Temp  Dew Point   Barom SL  DailyRain   HourRain   RainRate
                            mph        mph          %         F         F         in         in         in      in/hr
12:00am           120          9         10         57       85.2       68.3      29.71       0.01       0.00      0.000
12:05am           113          4         10         57       85.2       68.3      29.71       0.00       0.00      0.000
12:10am           128          3         10         57       85.2       68.3      29.72       0.00       0.00      0.000
12:20am           128          4          7         57       85.0       68.1      29.71       0.00       0.00      0.000
12:25am           141          2          7         58       85.0       68.6      29.71       0.00       0.00      0.000
12:30am           137          3          7         58       84.9       68.5      29.71       0.00       0.00      0.000
12:35am           124          3          6         58       84.8       68.4      29.71       0.00       0.00      0.000
12:40am           120          4          8         57       84.8       67.9      29.70       0.00       0.00      0.000
12:45am           124          2          8         58       84.8       68.4      29.70       0.00       0.00      0.000
12:50am           124          4          4         58       84.7       68.3      29.70       0.00       0.00      0.000
12:55am           114          2          4         58       84.6       68.2      29.70       0.00       0.00      0.000
1:00am            128          4          5         59       84.6       68.7      29.69       0.00       0.00      0.000
1:05am            116          4          4         59       84.6       68.7      29.69       0.00       0.00      0.000
1:10am            139          3          5         59       84.5       68.6      29.69       0.00       0.00      0.000
1:15am            122          3          7         58       84.5       68.1      29.70       0.00       0.00      0.000
1:20am            146          2          5         58       84.5       68.1      29.70       0.00       0.00      0.000
1:25am            143          4          6         58       84.5       68.1      29.70       0.00       0.00      0.000
1:30am            121          4          8         58       84.5       68.1      29.70       0.00       0.00      0.000
1:35am            114          2          8         58       84.5       68.1      29.70       0.00       0.00      0.000
1:40am            131          1          8         59       84.4       68.5      29.70       0.00       0.00      0.000
1:45am            143          2          8         59       84.3       68.4      29.70       0.00       0.00      0.000
1:50am            143          3          4         59       84.1       68.2      29.70       0.00       0.00      0.000
1:55am            127          3          6         59       84.1       68.2      29.69       0.00       0.00      0.000
2:00am            114          6          6         59       84.1       68.2      29.69       0.00       0.00      0.000
2:05am            127          2          6         59       84.0       68.1      29.70       0.00       0.00      0.000
2:10am            121          2          6         59       83.9       68.1      29.69       0.00       0.00      0.000
2:15am            125          2          6         59       83.9       68.1      29.69       0.00       0.00      0.000
2:20am            112          3          5         59       83.9       68.1      29.69       0.00       0.00      0.000
2:25am            112          1          5         60       83.8       68.4      29.69       0.00       0.00      0.000
2:30am            108          1          5         61       83.6       68.7      29.69       0.00       0.00      0.000
2:35am            108          3          4         61       83.3       68.5      29.69       0.00       0.00      0.000
2:40am            108          3          4         62       83.2       68.8      29.69       0.00       0.00      0.000
2:45am            104          3          4         62       83.0       68.6      29.69       0.00       0.00      0.000
2:50am            106          3          4         62       83.0       68.6      29.69       0.00       0.00      0.000
2:55am            114          3          4         62       82.9       68.6      29.69       0.00       0.00      0.000
3:00am            117          3          7         62       83.0       68.6      29.69       0.00       0.00      0.000
3:05am            122          4          4         61       82.9       68.1      29.69       0.00       0.00      0.000
3:10am            129          4          4         60       83.0       67.7      29.69       0.00       0.00      0.000
3:15am            121          4          4         61       83.2       68.4      29.69       0.00       0.00      0.000
3:20am            117          2          4         61       83.2       68.4      29.69       0.00       0.00      0.000
3:25am            133          2          5         61       83.2       68.4      29.69       0.00       0.00      0.000
3:30am            117          3          5         61       83.3       68.5      29.69       0.00       0.00      0.000
3:35am            110          4          6         61       83.3       68.5      29.69       0.00       0.00      0.000
3:40am            112          1          6         61       83.2       68.4      29.69       0.00       0.00      0.000
3:45am            115          2          6         61       83.1       68.3      29.69       0.00       0.00      0.000
3:50am            115          3          3         61       83.0       68.2      29.69       0.00       0.00      0.000
3:55am            120          2          3         62       83.2       68.8      29.69       0.00       0.00      0.000
4:00am            121          2          3         62       83.2       68.8      29.69       0.00       0.00      0.000
4:05am            121          3          4         62       83.0       68.6      29.70       0.00       0.00      0.000
4:10am            121          2          4         62       82.8       68.5      29.70       0.00       0.00      0.000
4:15am            120          3          5         62       82.6       68.3      29.69       0.00       0.00      0.000
4:20am            116          3          4         62       82.5       68.2      29.70       0.00       0.00      0.000
4:25am            144          2          6         62       82.4       68.1      29.70       0.00       0.00      0.000
4:30am            137          3          6         63       82.4       68.5      29.70       0.00       0.00      0.000
4:35am            124          2          5         63       82.3       68.5      29.70       0.00       0.00      0.000
4:40am            127          2          5         63       82.1       68.3      29.70       0.00       0.00      0.000
4:45am            127          2          5         64       82.0       68.6      29.70       0.00       0.00      0.000
4:50am            124          3          4         64       82.0       68.6      29.70       0.00       0.00      0.000
4:55am            131          3          4         63       82.2       68.4      29.70       0.00       0.00      0.000
5:00am            134          2          4         63       82.3       68.5      29.70       0.00       0.00      0.000
5:05am            141          2          6         64       81.9       68.5      29.70       0.00       0.00      0.000
5:10am            139          3          6         65       81.6       68.7      29.70       0.00       0.00      0.000
5:15am            139          2          6         66       81.2       68.8      29.71       0.00       0.00      0.000
5:20am            139          2          4         67       81.0       69.0      29.71       0.00       0.00      0.000
5:25am            114          1          5         66       80.8       68.4      29.71       0.00       0.00      0.000
5:30am            109          4          7         66       81.0       68.6      29.71       0.00       0.00      0.000
5:35am            116          3          5         66       81.1       68.7      29.71       0.00       0.00      0.000
5:40am            113          3          6         66       81.1       68.7      29.71       0.00       0.00      0.000
5:45am            110          4          7         66       81.1       68.7      29.71       0.00       0.00      0.000
5:50am            119          5          7         66       81.0       68.6      29.72       0.00       0.00      0.000
5:55am            126          4          7         66       81.0       68.6      29.72       0.00       0.00      0.000
6:00am            116          3          7         66       81.1       68.7      29.72       0.00       0.00      0.000
6:05am            103          4          7         66       81.1       68.7      29.72       0.00       0.00      0.000
6:10am             96          7          7         65       81.3       68.4      29.73       0.00       0.00      0.000
6:15am            120          3          7         65       81.6       68.7      29.73       0.00       0.00      0.000
6:20am            105          2          4         64       82.0       68.6      29.73       0.00       0.00      0.000
6:25am            124          4          7         63       82.3       68.5      29.73       0.00       0.00      0.000
6:30am            118          3          7         62       82.8       68.5      29.73       0.00       0.00      0.000
6:35am            126          3          6         62       83.2       68.8      29.73       0.00       0.00      0.000
6:40am             96          2          6         61       83.6       68.7      29.73       0.00       0.00      0.000
6:45am            125          2          6         61       84.0       69.1      29.73       0.00       0.00      0.000
6:50am            118          5          7         58       84.4       68.0      29.73       0.00       0.00      0.000
6:55am            130          5          8         58       84.6       68.2      29.73       0.00       0.00      0.000
7:00am            107          3          9         58       84.6       68.2      29.73       0.00       0.00      0.000
7:05am            120          4          8         58       84.8       68.4      29.74       0.00       0.00      0.000
7:10am            158          4          8         57       85.2       68.3      29.74       0.00       0.00      0.000
7:15am            117          6          8         57       85.4       68.4      29.74       0.00       0.00      0.000
7:20am            116          6          8         56       85.7       68.2      29.74       0.00       0.00      0.000
7:25am            145          5          9         56       85.7       68.2      29.74       0.00       0.00      0.000
7:30am            155          5         10         56       85.5       68.0      29.74       0.00       0.00      0.000
7:35am            126          3          8         56       85.7       68.2      29.74       0.00       0.00      0.000
7:40am            134          3          8         56       85.7       68.2      29.74       0.00       0.00      0.000
7:45am            141          6          8         56       85.6       68.1      29.74       0.00       0.00      0.000
7:50am            160          4          7         56       85.6       68.1      29.74       0.00       0.00      0.000
7:55am            154          4          8         56       85.4       67.9      29.74       0.00       0.00      0.000
8:00am            109          4          8         57       85.3       68.4      29.74       0.00       0.00      0.000
8:05am            133          5          7         57       85.4       68.4      29.75       0.00       0.00      0.000
8:10am            146          4          7         57       85.6       68.6      29.75       0.00       0.00      0.000
8:15am            141          5         10         56       85.9       68.4      29.75       0.00       0.00      0.000
8:20am            157          5         10         55       86.0       68.0      29.75       0.00       0.00      0.000
8:25am            156          6         10         55       86.2       68.2      29.75       0.00       0.00      0.000
8:30am            177          6         12         55       86.3       68.2      29.75       0.00       0.00      0.000
8:35am            145          4          9         55       86.5       68.4      29.75       0.00       0.00      0.000
8:40am            146          8         11         55       86.8       68.7      29.75       0.00       0.00      0.000
8:45am            122          8         11         55       87.0       68.9      29.75       0.00       0.00      0.000
8:50am            140          7         11         54       87.2       68.5      29.75       0.00       0.00      0.000
8:55am            106          3         11         54       87.0       68.4      29.75       0.00       0.00      0.000
9:00am            139          4         11         55       87.0       68.9      29.76       0.00       0.00      0.000
9:05am            125          8         11         54       87.0       68.4      29.75       0.00       0.00      0.000
9:10am            182          6         11         55       86.9       68.8      29.75       0.00       0.00      0.000
9:15am            139          2         11         54       86.9       68.3      29.75       0.00       0.00      0.000
9:20am            145          2         11         54       87.3       68.6      29.75       0.00       0.00      0.000
9:25am            120          5         11         54       87.6       68.9      29.75       0.00       0.00      0.000
9:30am            170          4         11         53       87.7       68.5      29.75       0.00       0.00      0.000
9:35am            145          5          9         52       87.8       68.0      29.75       0.00       0.00      0.000
9:40am            151          3         10         53       87.7       68.5      29.75       0.00       0.00      0.000
9:45am            191          4         10         52       87.9       68.1      29.75       0.00       0.00      0.000
9:50am            123          1          8         53       87.7       68.5      29.75       0.00       0.00      0.000
9:55am            160          4          8         52       88.1       68.3      29.75       0.00       0.00      0.000
10:00am           220          0          8         52       88.6       68.7      29.75       0.00       0.00      0.000
10:05am           117          4          6         52       88.9       69.0      29.75       0.00       0.00      0.000
10:10am           185          2          8         50       89.3       68.2      29.75       0.00       0.00      0.000
10:15am           174          0          8         50       89.6       68.5      29.75       0.00       0.00      0.000
10:20am           111          1          7         50       89.5       68.4      29.75       0.00       0.00      0.000
10:25am           232          3          7         50       89.5       68.4      29.75       0.00       0.00      0.000
10:30am           172          3          9         49       89.9       68.2      29.75       0.00       0.00      0.000
10:35am           220          1         10         49       89.8       68.1      29.75       0.00       0.00      0.000
10:40am           171          3         10         48       90.2       67.9      29.75       0.00       0.00      0.000
10:45am           156          8         12         48       90.3       68.0      29.75       0.00       0.00      0.000
10:50am           102          3          8         48       90.9       68.5      29.75       0.00       0.00      0.000
10:55am           168          2          8         46       91.3       67.6      29.75       0.00       0.00      0.000
11:00am           113          3          8         46       92.1       68.4      29.74       0.00       0.00      0.000
11:05am           200          3          8         45       92.7       68.3      29.74       0.00       0.00      0.000
11:10am           101          3          9         44       92.5       67.4      29.74       0.00       0.00      0.000
11:15am           104          2          9         45       92.2       67.8      29.74       0.00       0.00      0.000
11:20am            93          2          7         44       92.4       67.3      29.74       0.00       0.00      0.000
11:25am            64          3          9         44       92.3       67.3      29.74       0.00       0.00      0.000
11:30am           166          6          9         45       92.7       68.3      29.74       0.00       0.00      0.000
11:35am           156          1          9         43       93.0       67.2      29.73       0.00       0.00      0.000
11:40am           180          3         11         42       93.5       67.0      29.73       0.00       0.00      0.000
11:45am           147          1         11         42       93.3       66.8      29.73       0.00       0.00      0.000
11:50am           147          3          8         41       93.9       66.6      29.73       0.00       0.00      0.000
11:55am           133          7          8         41       94.0       66.7      29.72       0.00       0.00      0.000
12:00pm           128          1          8         41       94.1       66.8      29.73       0.00       0.00      0.000
12:05pm           245          4          7         41       94.9       67.5      29.72       0.00       0.00      0.000
12:10pm           233          3         10         41       95.0       67.6      29.72       0.00       0.00      0.000
12:15pm           172          2         10         41       94.3       67.0      29.72       0.00       0.00      0.000
12:20pm           239          3          7         40       94.4       66.4      29.72       0.00       0.00      0.000
12:25pm           146          2          7         40       95.2       67.1      29.71       0.00       0.00      0.000
12:30pm           199          4          9         38       95.9       66.2      29.71       0.00       0.00      0.000
12:35pm           209          4          6         38       95.8       66.1      29.71       0.00       0.00      0.000
12:40pm           234          2          7         38       95.6       66.0      29.70       0.00       0.00      0.000
12:45pm           245          2          7         38       95.5       65.9      29.70       0.00       0.00      0.000
12:50pm           256          4         10         39       95.4       66.5      29.70       0.00       0.00      0.000
12:55pm           191          2         11         39       95.4       66.5      29.70       0.00       0.00      0.000
1:00pm            218          1         11         38       95.9       66.2      29.69       0.00       0.00      0.000
1:05pm            250          3          6         38       96.2       66.5      29.69       0.00       0.00      0.000
1:10pm            285          2          7         39       95.6       66.7      29.68       0.00       0.00      0.000
1:15pm            238          6          8         38       95.7       66.1      29.68       0.00       0.00      0.000
1:20pm            253          2         12         38       96.1       66.4      29.68       0.00       0.00      0.000
1:25pm            215          4         12         38       96.0       66.3      29.67       0.00       0.00      0.000
1:30pm            265          2         12         37       96.5       66.0      29.67       0.00       0.00      0.000
1:35pm            231          7          9         37       97.0       66.4      29.67       0.00       0.00      0.000
1:40pm            247          4          9         37       96.6       66.1      29.67       0.00       0.00      0.000
1:45pm            291          2          9         37       97.1       66.5      29.67       0.00       0.00      0.000
1:50pm             85          8          8         36       97.8       66.3      29.66       0.00       0.00      0.000
1:55pm            247          1         10         36       97.7       66.3      29.66       0.00       0.00      0.000
2:00pm            270          3         10         36       98.1       66.6      29.66       0.00       0.00      0.000
2:05pm            272          3          9         35       98.1       65.8      29.66       0.00       0.00      0.000
2:10pm            226          1          9         35       98.1       65.8      29.65       0.00       0.00      0.000
2:15pm            206          8         11         35       98.3       66.0      29.65       0.00       0.00      0.000
2:20pm            193          5         10         36       98.1       66.6      29.65       0.00       0.00      0.000
2:25pm            199          5         10         35       98.4       66.1      29.65       0.00       0.00      0.000
2:30pm            126          3         10         35       98.0       65.7      29.65       0.00       0.00      0.000
2:35pm            231          6         10         35       97.7       65.4      29.64       0.00       0.00      0.000
2:40pm            339          4         10         35       98.0       65.7      29.64       0.00       0.00      0.000
2:45pm            234          6         10         35       98.0       65.7      29.64       0.00       0.00      0.000
2:50pm            235          3          9         34       98.2       65.0      29.63       0.00       0.00      0.000
2:55pm            242          6          9         34       98.4       65.2      29.63       0.00       0.00      0.000
3:00pm            124          3          9         34       97.8       64.7      29.63       0.00       0.00      0.000
3:05pm            347          8          8         35       97.0       64.8      29.63       0.00       0.00      0.000
3:10pm            291          3          9         36       97.2       65.8      29.62       0.00       0.00      0.000
3:15pm            301          4         13         34       97.4       64.4      29.62       0.00       0.00      0.000
3:20pm            256          5         11         34       97.9       64.8      29.63       0.00       0.00      0.000
3:25pm            233          3         11         34       98.3       65.1      29.63       0.00       0.00      0.000
3:30pm            235          3         11         34       98.7       65.5      29.62       0.00       0.00      0.000
3:35pm            324          3          7         33       98.5       64.5      29.62       0.00       0.00      0.000
3:40pm            235          3          7         33       98.5       64.5      29.62       0.00       0.00      0.000
3:45pm            241          2          8         33       98.9       64.8      29.61       0.00       0.00      0.000
3:50pm             14          4          5         32       98.7       63.7      29.61       0.00       0.00      0.000
3:55pm            270          7          9         32       98.6       63.7      29.61       0.00       0.00      0.000
4:00pm             52          2          9         33       98.2       64.2      29.60       0.00       0.00      0.000
4:05pm            266          2         10         32       98.8       63.8      29.60       0.00       0.00      0.000
4:10pm            226          2         10         32       99.3       64.3      29.60       0.00       0.00      0.000
4:15pm            289          2         10         32       98.9       63.9      29.60       0.00       0.00      0.000
4:20pm            320          4         10         32       98.2       63.3      29.61       0.00       0.00      0.000
4:25pm             53          1         10         32       98.1       63.2      29.61       0.00       0.00      0.000
4:30pm            320          2         10         32       98.4       63.5      29.60       0.00       0.00      0.000
4:35pm            294          7         11         32       98.1       63.2      29.60       0.00       0.00      0.000
4:40pm            280          8         11         31       98.2       62.4      29.60       0.00       0.00      0.000
4:45pm            326          3         11         32       98.1       63.2      29.60       0.00       0.00      0.000
4:50pm            323          1          8         32       97.5       62.7      29.61       0.00       0.00      0.000
4:55pm             29          2          8         33       97.3       63.4      29.60       0.00       0.00      0.000
5:00pm            282          3          8         33       97.4       63.5      29.60       0.00       0.00      0.000
5:05pm            234          3          8         34       97.3       64.3      29.60       0.00       0.00      0.000
5:10pm            258          6         14         33       97.3       63.4      29.60       0.00       0.00      0.000
5:15pm            287          4         14         33       97.2       63.3      29.60       0.00       0.00      0.000
5:20pm            247          2          8         33       97.3       63.4      29.61       0.00       0.00      0.000
5:25pm            249          3          8         33       97.3       63.4      29.61       0.00       0.00      0.000
5:30pm            276         10         10         34       97.2       64.2      29.61       0.00       0.00      0.000
5:35pm            226          4         10         35       97.1       64.9      29.61       0.00       0.00      0.000
5:40pm            226          3         10         34       97.1       64.1      29.60       0.00       0.00      0.000
5:45pm            158          4         10         34       97.4       64.4      29.62       0.00       0.00      0.000
5:50pm            107         13         19         42       93.6       67.1      29.63       0.00       0.00      0.000
5:55pm            108          4         19         47       89.7       66.8      29.63       0.00       0.00      0.000
6:00pm             80         10         22         49       88.9       67.3      29.64       0.00       0.00      0.000
6:05pm             99         18         27         51       87.2       66.9      29.65       0.00       0.00      0.000
6:10pm             99         10         27         52       86.7       67.0      29.66       0.00       0.00      0.000
6:15pm            115         21         29         52       86.4       66.7      29.67       0.00       0.00      0.000
6:20pm            130         18         29         57       85.3       68.4      29.69       0.00       0.00      0.000
6:25pm            139         18         29         65       82.7       69.7      29.70       0.00       0.00      0.000
6:30pm            125         10         29         70       81.1       70.4      29.71       0.00       0.00      0.000
6:35pm            142         12         22         71       79.3       69.1      29.72       0.03       0.03      1.020
6:40pm             88         11         27         76       76.4       68.3      29.73       0.11       0.11      0.880
6:45pm             65         13         27         81       74.3       68.1      29.73       0.16       0.16      0.470
6:50pm              4         12         20         83       73.2       67.7      29.73       0.23       0.23      1.130
6:55pm             14          9         20         85       72.5       67.7      29.73       0.32       0.32      0.720
7:00pm            359         10         20         84       72.5       67.4      29.72       0.36       0.36      0.330
7:05pm            359          9         13         84       72.8       67.7      29.71       0.39       0.39      0.510
7:10pm             34          5         14         86       72.9       68.5      29.71       0.42       0.42      0.210
7:15pm            314          5         14         86       72.9       68.5      29.71       0.43       0.43      0.230
7:20pm              4          4          8         85       72.9       68.1      29.72       0.43       0.43      0.080
7:25pm            321          6          8         85       73.0       68.2      29.73       0.43       0.43      0.050
7:30pm            285          4          9         87       73.0       68.9      29.74       0.44       0.44      0.050
7:35pm            337          3          9         88       73.0       69.2      29.74       0.45       0.45      0.090
7:40pm            328          8         10         89       73.1       69.7      29.74       0.45       0.45      0.080
7:45pm              4          3         10         89       73.1       69.7      29.74       0.45       0.45      0.050
7:50pm             27          4          5         89       73.1       69.7      29.74       0.45       0.29      0.000
7:55pm            359          1          5         87       73.1       69.0      29.74       0.46       0.30      0.000
8:00pm             29          0          5         86       73.1       68.7      29.74       0.47       0.31      0.100
8:05pm             25          2          3         86       73.2       68.8      29.74       0.47       0.11      0.070
8:10pm             32          3          3         87       73.4       69.3      29.73       0.48       0.12      0.060
8:15pm             16          0          3         86       73.4       69.0      29.74       0.48       0.12      0.060
8:20pm            359          0          2         87       73.6       69.5      29.74       0.49       0.06      0.070
8:25pm            359          0          2         88       73.8       70.0      29.74       0.49       0.06      0.060
8:30pm            320          0          2         88       73.7       69.9      29.75       0.49       0.06      0.040
8:35pm            359          0          0         88       73.7       69.9      29.75       0.50       0.06      0.040
8:40pm            317          0          1         90       73.8       70.7      29.75       0.51       0.07      0.080
8:45pm            359          0          2         89       73.8       70.4      29.75       0.51       0.07      0.080
8:50pm            359          0          0         90       74.0       70.9      29.75       0.52       0.07      0.060
8:55pm            235          1          2         91       74.2       71.4      29.75       0.52       0.07      0.060
9:00pm            234          0          3         91       74.2       71.4      29.75       0.53       0.08      0.080
9:05pm            237          0          0         91       74.2       71.4      29.75       0.53       0.06      0.070
9:10pm            233          0          1         91       74.3       71.5      29.75       0.54       0.07      0.060
9:15pm            359          1          2         92       74.6       72.1      29.75       0.55       0.08      0.100
9:20pm            233          0          2         91       74.6       71.8      29.76       0.55       0.07      0.080
9:25pm            231          0          2         91       74.5       71.7      29.75       0.56       0.08      0.060
9:30pm            359          0          2         91       74.5       71.7      29.75       0.57       0.09      0.090
9:35pm            359          0          0         91       74.5       71.7      29.75       0.57       0.08      0.090
9:40pm            359          0          0         92       74.6       72.1      29.75       0.57       0.08      0.060
9:45pm            231          0          0         91       74.8       72.0      29.76       0.58       0.09      0.050
9:50pm            237          0          0         91       74.7       71.9      29.76       0.59       0.08      0.080
9:55pm            278          0          0         91       74.7       71.9      29.76       0.59       0.08      0.080
10:00pm           274          0          0         92       74.8       72.3      29.76       0.59       0.08      0.050
10:05pm           359          0          0         92       74.7       72.2      29.76       0.60       0.07      0.040
10:10pm           275          0          0         92       74.5       72.0      29.76       0.60       0.07      0.040
10:15pm           328          0          0         92       74.4       71.9      29.76       0.61       0.08      0.060
10:20pm           329          0          0         92       74.3       71.8      29.76       0.61       0.06      0.060
10:25pm           335          0          0         92       74.2       71.7      29.76       0.61       0.06      0.050
10:30pm           336          0          0         93       74.3       72.1      29.76       0.61       0.06      0.000
10:35pm           116          0          0         93       74.5       72.3      29.76       0.61       0.04      0.000
10:40pm           164          2          3         93       74.8       72.6      29.76       0.62       0.05      0.000
10:45pm           359          0          3         93       74.9       72.7      29.76       0.62       0.05      0.000
10:50pm           359          0          2         93       74.8       72.6      29.75       0.62       0.04      0.000
10:55pm           167          0          2         93       74.6       72.4      29.75       0.63       0.05      0.040
11:00pm           359          0          2         93       74.5       72.3      29.75       0.63       0.05      0.040
11:05pm           167          0          0         93       74.3       72.1      29.75       0.63       0.04      0.040
11:10pm           165          0          0         93       74.2       72.0      29.75       0.63       0.04      0.040
11:15pm           165          1          3         93       74.3       72.1      29.75       0.63       0.04      0.000
11:20pm           359          0          3         94       74.3       72.5      29.75       0.63       0.02      0.000